EST,Max TemperatureF,Mean TemperatureF,Min TemperatureF,Max Dew PointF,MeanDew PointF,Min DewpointF,Max Humidity, Mean Humidity, Min Humidity, Max Sea Level PressureIn, Mean Sea Level PressureIn, Min Sea Level PressureIn, Max VisibilityMiles, Mean VisibilityMiles, Min VisibilityMiles, Max Wind SpeedMPH, Mean Wind SpeedMPH, Max Gust SpeedMPH,PrecipitationIn, CloudCover, Events, WindDirDegrees
2012-12-1,57,45,34,45,38,30,94,81,59,30.23,30.13,29.97,10,4,0,20,8,26,0.00,7,Fog,146
2012-12-2,56,49,40,53,47,38,92,83,63,30.10,29.97,29.90,10,6,0,16,8,23,0.00,8,Fog-Rain,227
2012-12-3,62,50,38,58,50,36,95,92,78,30.12,30.02,29.88,10,3,0,18,6,26,0.00,7,Fog,156
2012-12-4,63,51,38,55,42,28,89,72,56,30.13,29.98,29.88,10,9,2,20,11,25,0.00,4,Rain,254
2012-12-5,36,31,25,28,20,16,83,64,50,30.38,30.32,30.14,10,10,7,14,7,21,0.00,1,,336
2012-12-6,37,30,24,29,25,20,86,75,60,30.32,30.12,29.94,10,10,10,12,7,17,0.00,2,,159
2012-12-7,46,41,36,41,37,29,92,85,73,29.95,29.91,29.87,10,4,1,8,3,,0.00,8,Rain,148
2012-12-8,41,36,32,39,33,28,95,90,81,30.16,29.96,29.82,10,7,1,10,5,,0.00,8,Rain-Snow,18
2012-12-9,35,34,32,32,30,27,96,88,74,30.16,29.96,29.64,10,6,0,14,5,21,0.00,8,Fog-Rain-Snow,78
2012-12-10,38,34,29,37,30,21,96,84,66,29.85,29.68,29.59,10,8,0,14,6,21,0.00,8,Fog,298
2012-12-11,34,28,21,25,20,16,81,69,55,30.11,29.98,29.85,10,10,10,13,5,17,0.00,5,,224
2012-12-12,43,34,26,25,22,18,81,64,38,30.33,30.25,30.11,10,10,7,16,7,20,0.00,1,,208
2012-12-13,46,36,26,25,22,17,82,61,32,30.33,30.26,30.14,10,10,7,14,7,17,0.00,0,,187
2012-12-14,48,39,30,31,26,22,84,64,41,30.23,30.18,30.15,10,10,7,7,4,,0.00,0,,197
2012-12-15,43,38,32,41,33,28,93,80,62,30.15,29.94,29.65,10,6,2,20,8,24,0.00,6,Rain,126
2012-12-16,50,46,41,47,43,38,92,89,77,29.66,29.61,29.57,10,6,3,14,8,18,0.00,8,Rain,212
2012-12-17,40,39,37,37,35,32,89,83,75,29.72,29.67,29.61,10,8,4,8,4,,0.00,8,,264
2012-12-18,40,35,30,33,29,24,91,76,55,29.75,29.70,29.63,10,8,2,12,5,16,0.00,5,,263
2012-12-19,42,36,32,35,32,29,93,83,65,30.10,29.97,29.71,10,4,1,7,2,,0.00,6,,219
2012-12-20,46,40,34,43,35,31,91,85,74,30.04,29.50,29.12,10,6,2,25,14,36,0.00,8,Rain-Snow,130
2012-12-21,34,32,29,32,26,19,95,80,62,29.88,29.47,29.16,10,6,0,29,13,41,0.00,8,Snow,310
2012-12-22,32,29,25,23,20,18,85,68,60,30.06,29.99,29.88,10,10,10,23,13,30,0.00,5,,279
2012-12-23,32,25,18,23,19,15,86,75,63,30.02,29.93,29.86,10,9,5,10,5,,0.00,4,,275
2012-12-24,31,24,18,26,21,15,90,82,69,29.99,29.92,29.82,10,8,0,10,3,,0.00,6,Snow,37
2012-12-25,31,26,21,25,20,16,89,73,56,30.30,30.20,29.99,10,10,10,9,4,,0.00,7,,359
2012-12-26,30,28,25,26,22,20,89,79,69,30.25,29.99,29.85,10,6,0,17,9,29,0.00,8,Snow,33
2012-12-27,29,21,12,23,18,9,86,77,58,30.13,30.04,29.87,10,9,3,13,9,22,0.00,4,Snow,316
2012-12-28,28,18,8,23,16,5,91,86,78,30.15,30.06,29.91,10,6,1,6,1,,0.00,5,Snow,118
2012-12-29,29,24,18,23,21,14,91,83,71,30.04,29.88,29.81,10,6,2,10,4,16,0.00,7,Snow,343
2012-12-30,28,23,18,25,19,14,88,80,72,30.25,30.18,30.05,10,8,3,15,7,20,0.00,6,Snow,239
2012-12-31,34,26,19,27,21,15,82,73,67,30.14,29.97,29.88,10,9,5,16,9,23,0.00,5,,231